星链-3580 (STARLINK-3580 )

导读

STARLINK-3580是美国SpaceX公司星链星座的一员,于2022年2月25日发射入轨。作为低地球轨道卫星,它是星链全球卫星互联网组网的组成部分,依托星链星座的规模化部署,为全球偏远、欠发达地区提供高速低延迟宽带互联网接入服务,助力实现网络覆盖无死角,支撑远程通信、应急联网等多元场景需求,推动全球互联基础设施建设。

基本信息
目录编号:
51781
目录名称:
STARLINK-3580
国际标识:
2022-017P
轨道中心:
EARTH
卫星名称:
星链-3580
卫星全名:
星链-3580 (STARLINK-3580 )
卫星状态:
在轨 (已飞行1573 天)
发射日期:
2022-02-25 UTC
国别 :
美国 (US)
星等 :
--
轨道信息
数据来源 国际轨道数据 AOE轨道数据
星历时间 2026-06-17T19:17:21+0800
6小时前
查看轨道信息
2026-06-11T11:00:00+0800
6天前
查看轨道信息
半长轴 6917.891km 6917.899km
偏心率 0.0001212 0.0001276
轨道倾角 53.160° 53.159°
近地点辐角 92.233° 88.682°
升交点赤经 251.051° 279.575°
平近点角 267.880° 345.661°
近地点 538.915km 538.879km
远地点 540.593km 540.645km
周期 95.438分钟 95.438分钟
每日圈数 15.088367 15.088341
详细信息
固有亮度:
5
最大亮度:
2.5
卫星平台:
Starlink v1.5
覆盖范围:
全球
运营商:
太空探索技术公司
运营商所在国:
美国
制造商(研发单位):
太空探索技术公司
制造商所在国:
美国
使用方式:
暂无
卫星简介
星链(Starlink)计划是由太空探索技术公司(SpaceX)提出的一个巨型低轨卫星互联网星座项目,计划在2019年至2024年间在太空搭建由约1.2万颗卫星组成的“星链”网络,其中1584颗将部署在地球上空550千米处的近地轨道,并从2020年开始工作。该卫星仍在工作。
2D轨道图
3D轨道图
轨道高度分析图
轨道倾角分析图
轨道综合分析图
查看轨道综合分析图